This is the latest recevied weather packets stored in our database for station/object KF5JED-13. If no packets are shown the sender has not sent any weather packets the latest 1 day(s).
| Time | Temp. | Humidity | Pressure | Rain* | Wind** | Luminosity | Snow |
|---|---|---|---|---|---|---|---|
| 1778083692 | 11.11° C | 60% | 1016.2 hPa | 0 mm | - | 286 W/m² | - |
| 1778081656 | 10.56° C | 63% | 1016 hPa | 0 mm | - | 661 W/m² | - |
| 1778081354 | 10° C | 61% | 1015.9 hPa | 0 mm | - | 619 W/m² | - |
| 1778078626 | 9.44° C | 63% | 1015.6 hPa | 0 mm | - | 281 W/m² | - |
| 1778078325 | 9.44° C | 64% | 1015.6 hPa | 0 mm | - | 324 W/m² | - |
| 1778076511 | 8.33° C | 69% | 1015.3 hPa | 0 mm | - | 326 W/m² | - |
| 1778075601 | 7.22° C | 71% | 1015.2 hPa | 0 mm | - | 212 W/m² | - |
| 1778074994 | 6.67° C | 72% | 1015.3 hPa | 0 mm | - | 170 W/m² | - |
| 1778074388 | 6.67° C | 74% | 1015.3 hPa | 0 mm | - | 113 W/m² | - |
| 1778073782 | 6.11° C | 74% | 1015.7 hPa | 0 mm | - | 100 W/m² | - |
| 1778073480 | 6.11° C | 75% | 1015.9 hPa | 0 mm | - | 88 W/m² | - |
| 1778071965 | 6.11° C | 76% | 1016 hPa | 0 mm | - | 50 W/m² | - |
| 1778071058 | 5.56° C | 76% | 1015.9 hPa | 0 mm | - | 28 W/m² | - |
| 1778070453 | 5.56° C | 77% | 1015.7 hPa | 0 mm | - | 15 W/m² | - |
| 1778069242 | 5.56° C | 78% | 1015.3 hPa | 0 mm | - | 7 W/m² | - |
| 1778065309 | 5.56° C | 86% | 1015.2 hPa | 0 mm | - | 0 W/m² | - |
| 1778064401 | 5.56° C | 86% | 1014.9 hPa | 0 mm | - | 0 W/m² | - |
| 1778064098 | 5.56° C | 86% | 1014.8 hPa | 0 mm | - | 0 W/m² | - |
| 1778063795 | 6.11° C | 86% | 1014.7 hPa | 0 mm | - | 0 W/m² | - |
| 1778063190 | 6.11° C | 85% | 1014.7 hPa | 0 mm | - | 0 W/m² | - |
| 1778062887 | 6.11° C | 85% | 1014.8 hPa | 0 mm | - | 0 W/m² | - |
| 1778061979 | 6.11° C | 85% | 1014.3 hPa | 0 mm | - | 0 W/m² | - |
| 1778060769 | 6.67° C | 82% | 1013.9 hPa | 0 mm | - | 0 W/m² | - |
| 1778060165 | 6.67° C | 81% | 1013.7 hPa | 0 mm | - | 0 W/m² | - |
| 1778059862 | 6.67° C | 81% | 1013.6 hPa | 0 mm | - | 0 W/m² | - |
* Rain latest hour (hover to see other rain measurements)
** Current wind speed in m/s (hover to see current wind gust speed)